Flag for Sudan Weather past 2 weeks in Khartoum, Sudan

Now
N/A

Clear.


Feels Like: N/A
Forecast: 71 / 106 °F
Wind: 9 mph from North

Location: Khartoum Airport

Current Time: Apr 20, 2015 at 4:58:29 AM

Latest Report: Apr 20, 2015 at 4:30 AM


Visibility: 10 mi

Pressure: 29.83 "Hg

Humidity: N/A

Dew point: N/A

Location of KhartoumLocation

Historic Weather in Khartoum — Graph

°F

Khartoum temperature yesterday

Maximum temperature yesterday: 99 °F (at 5:00 PM)
Minimum temperature yesterday: 72 °F (at 7:00 AM)
Average temperature yesterday: 85 °F

Past Weeks' High & Low Weather Summary

 TemperatureHumidityPressure
High106 °F (Apr 9, 4:00 PM)44% (Apr 12, 11:00 PM)32.01 "Hg (Apr 12, 11:00 PM)
Low64 °F (Apr 12, 7:00 AM)2% (Apr 10, 2:00 PM)29.68 "Hg (Apr 9, 4:30 PM)
Average85 °F10%29.90 "Hg
* Reported Apr 5 4:00 AM — Apr 20 4:00 AM, Khartoum, Weather by CustomWeather, © 2015

Note: Actual official high and low records may vary slightly from our data, if they occured in-between our weather recording intervals... More about our weather records

Advertising

Khartoum weather history for previous 24 hours

 ConditionsComfort  
Time TempWeatherWind HumidityBarometerVisibility
4:00 AM
Mon, Apr 20
79 °FClear.9 mph10%29.83 "Hg10 mi
3:30 AMN/AClear.12 mphN/A29.83 "Hg10 mi
3:00 AM81 °FClear.13 mph9%29.83 "Hg10 mi
2:30 AMN/AClear.14 mphN/A29.86 "Hg10 mi
2:00 AM82 °FClear.14 mph9%29.86 "Hg10 mi
11:30 PM
Sun, Apr 19
N/AClear.10 mphN/A29.89 "Hg10 mi
11:00 PM88 °FClear.9 mph9%29.89 "Hg10 mi
10:30 PMN/AClear.9 mphN/A29.89 "Hg10 mi
10:00 PM90 °FClear.7 mph6%29.86 "Hg10 mi
9:30 PMN/AClear.7 mphN/A29.86 "Hg10 mi
9:00 PM90 °FClear.9 mph8%29.86 "Hg10 mi
8:30 PMN/AClear.7 mphN/A29.83 "Hg10 mi
8:00 PM93 °FClear.9 mph6%29.83 "Hg10 mi
7:30 PMN/AClear.8 mphN/A29.83 "Hg10 mi
7:00 PM95 °FSunny.7 mph6%29.83 "Hg10 mi
6:30 PMN/ASunny.8 mphN/A29.80 "Hg10 mi
6:00 PM97 °FSunny.9 mph5%29.80 "Hg10 mi
5:30 PMN/ASunny.7 mphN/A29.80 "Hg10 mi
5:00 PM99 °FSunny.7 mph7%29.80 "Hg10 mi
4:30 PMN/ASunny.12 mphN/A29.80 "Hg10 mi
4:00 PM97 °FSunny.12 mph8%29.80 "Hg10 mi
3:30 PMN/ASunny.7 mphN/A29.83 "Hg10 mi
3:00 PM95 °FSunny.9 mph6%29.83 "Hg10 mi
2:30 PMN/ASunny.5 mphN/A29.86 "Hg10 mi
2:00 PM95 °FSunny.7 mph18%29.86 "Hg10 mi
12:00 PM90 °FSunny.10 mph8%29.92 "Hg10 mi
11:00 AM86 °FSunny.14 mph11%29.95 "Hg10 mi
10:30 AMN/ASunny.16 mphN/A29.95 "Hg10 mi
10:00 AM82 °FSunny.16 mph11%29.95 "Hg10 mi
9:30 AMN/ASunny.15 mphN/A29.95 "Hg10 mi
9:00 AM79 °FSunny.13 mph10%29.95 "Hg10 mi
8:30 AMN/ASunny.13 mphN/A29.92 "Hg10 mi
8:00 AM73 °FSunny.13 mph14%29.92 "Hg10 mi
7:30 AMN/ASunny.10 mphN/A29.89 "Hg10 mi
7:00 AM72 °FSunny.10 mph12%29.89 "Hg10 mi
6:30 AMN/AClear.9 mphN/A29.89 "Hg10 mi
6:00 AM73 °FClear.12 mph9%29.89 "Hg10 mi
5:30 AMN/AClear.N/AN/A29.89 "Hg10 mi
5:00 AM75 °FClear.13 mph11%29.89 "Hg10 mi
4:30 AMN/AClear.12 mphN/A29.89 "Hg10 mi
4:00 AM75 °FClear.10 mph11%29.89 "Hg10 mi
Weather by CustomWeather, © 2015

See weather overviewHow to use our weather pages